Weather History for KFBG - June, 2013

Change the Weather History Date:

Saturday, June 1, 2013

  Actual Average Record
Temperature  
Mean Temperature 78 °F -  
Max Temperature 89 °F 81 °F 95 °F (2011)
Min Temperature 69 °F 63 °F 58 °F (2014)
Cooling Degree Days 14    
Growing Degree Days 28 (Base 50)    
Moisture  
Dew Point 68 °F    
Average Humidity 79    
Maximum Humidity 100    
Minimum Humidity 41    
Precipitation  
Precipitation 0.00 in - - ()
Sea Level Pressure  
Sea Level Pressure 30.13 in    
Wind  
Wind Speed 7 mph (SSW)    
Max Wind Speed 12 mph    
Max Gust Speed 16 mph    
Visibility 10 miles    
Events      
Averages and records for this station are not official NWS values.
T = Trace of Precipitation, MM = Missing Value Source: NWS Daily Summary

Daily Weather History Graph

Daily Weather History Graph

Search for Another Location

Airport or City:

Trip Planner

Search our weather history database for the weather conditions in past years. The results will help you decide how hot, cold, wet, or windy it might be!

Date:

Astronomy

Jun. 01, 2013 Rise Set
Actual Time 6:02 AM EDT 8:24 PM EDT
Civil Twilight 5:33 AM EDT 8:54 PM EDT
Nautical Twilight 4:57 AM EDT 9:30 PM EDT
Astronomical Twilight 4:17 AM EDT 10:09 PM EDT
Moon 1:43 AM EDT (6/1) 2:05 PM EDT (6/1)
Length of Visible Light 15h 20m
Length of Day
14h 22m
Last Quarter, 41% of the Moon is Illuminated
Jun 1
Last Quarter
Jun 8
New
Jun 16
First Quarter
Jun 23
Full
Jun 30
Last Quarter

Hourly Weather History & Observations

Time (EDT) Temp. Heat Index Dew Point Humidity Pressure Visibility Wind Dir Wind Speed Gust Speed Precip Events Conditions
12:58 AM 73.8 °F - 68.0 °F 82% 30.15 in 10.0 mi SSW 8.1 mph - N/A   Clear
1:58 AM 72.7 °F - 68.4 °F 86% 30.14 in 10.0 mi SSW 8.1 mph - N/A   Clear
2:58 AM 71.6 °F - 68.7 °F 91% 30.14 in 10.0 mi SSW 4.6 mph - N/A   Clear
3:58 AM 70.7 °F - 68.9 °F 94% 30.14 in 10.0 mi SW 4.6 mph - N/A   Clear
4:58 AM 69.6 °F - 69.3 °F 99% 30.15 in 10.0 mi SSW 3.5 mph - N/A   Clear
5:49 AM 69.8 °F - 69.8 °F 100% 30.16 in 10.0 mi SSW 2.3 mph - N/A   Partly Cloudy
5:58 AM 69.4 °F - 69.1 °F 99% 30.17 in 10.0 mi Variable 2.3 mph - N/A   Scattered Clouds
6:02 AM 69.8 °F - 69.8 °F 100% 30.16 in 10.0 mi South 2.3 mph - N/A   Mostly Cloudy
6:12 AM 69.8 °F - 69.8 °F 100% 30.16 in 10.0 mi South 3.5 mph - N/A   Mostly Cloudy
6:28 AM 69.8 °F - 69.8 °F 100% 30.16 in 10.0 mi SSW 4.6 mph - N/A   Overcast
6:58 AM 69.8 °F - 69.4 °F 99% 30.17 in 10.0 mi SW 4.6 mph - N/A   Overcast
7:06 AM 69.8 °F - 69.8 °F 100% 30.16 in 10.0 mi SW 4.6 mph - N/A   Overcast
7:20 AM 69.8 °F - 69.8 °F 100% 30.17 in 10.0 mi SW 4.6 mph - N/A   Overcast
7:30 AM 71.6 °F - 69.8 °F 94% 30.16 in 10.0 mi SW 5.8 mph - N/A   Overcast
7:44 AM 71.6 °F - 69.8 °F 94% 30.17 in 10.0 mi SW 5.8 mph - N/A   Overcast
7:58 AM 70.9 °F - 70.5 °F 99% 30.17 in 10.0 mi SW 8.1 mph - N/A   Overcast
8:22 AM 71.6 °F - 69.8 °F 94% 30.16 in 10.0 mi SW 6.9 mph - N/A   Overcast
8:30 AM 71.6 °F - 69.8 °F 94% 30.16 in 10.0 mi SW 5.8 mph - N/A   Overcast
8:38 AM 71.6 °F - 69.8 °F 94% 30.16 in 10.0 mi SW 6.9 mph - N/A   Overcast
8:58 AM 73.6 °F - 69.1 °F 86% 30.17 in 10.0 mi SW 10.4 mph - N/A   Mostly Cloudy
9:04 AM 75.2 °F - 69.8 °F 83% 30.16 in 10.0 mi SSW 10.4 mph - N/A   Scattered Clouds
9:18 AM 75.2 °F - 69.8 °F 83% 30.16 in 10.0 mi Variable 6.9 mph - N/A   Mostly Cloudy
9:46 AM 77.0 °F - 68.0 °F 74% 30.16 in 10.0 mi SSW 9.2 mph - N/A   Mostly Cloudy
9:58 AM 77.0 °F - 68.7 °F 75% 30.17 in 10.0 mi SSW 8.1 mph - N/A   Mostly Cloudy
10:00 AM 77.0 °F - 68.0 °F 74% 30.15 in 10.0 mi SSW 6.9 mph - N/A   Scattered Clouds
10:58 AM 80.1 °F 82.6 °F 67.6 °F 66% 30.14 in 10.0 mi Variable 5.8 mph - N/A   Scattered Clouds
11:58 AM 81.9 °F 84.2 °F 66.6 °F 60% 30.14 in 10.0 mi SSW 8.1 mph - N/A   Clear
12:58 PM 84.6 °F 87.1 °F 66.9 °F 55% 30.12 in 10.0 mi SSW 6.9 mph - N/A   Scattered Clouds
1:58 PM 86.2 °F 88.8 °F 66.6 °F 52% 30.12 in 10.0 mi SW 11.5 mph - N/A   Partly Cloudy
2:58 PM 86.9 °F 88.6 °F 65.1 °F 48% 30.09 in 10.0 mi SW 9.2 mph - N/A   Clear
3:58 PM 88.3 °F 88.9 °F 62.2 °F 42% 30.06 in 10.0 mi SW 10.4 mph - N/A   Partly Cloudy
4:58 PM 88.0 °F 88.1 °F 61.3 °F 41% 30.06 in 10.0 mi WSW 11.5 mph - N/A   Scattered Clouds
5:58 PM 88.0 °F 88.7 °F 62.8 °F 43% 30.06 in 10.0 mi SSW 11.5 mph - N/A   Partly Cloudy
6:58 PM 86.7 °F 87.5 °F 62.8 °F 45% 30.04 in 10.0 mi South 8.1 mph - N/A   Clear
7:58 PM 84.0 °F 86.0 °F 65.8 °F 54% 30.06 in 10.0 mi South 8.1 mph 16.1 mph N/A   Clear
8:58 PM 80.8 °F 82.8 °F 65.8 °F 60% 30.06 in 10.0 mi South 9.2 mph - N/A   Clear
9:58 PM 78.3 °F - 65.5 °F 65% 30.07 in 10.0 mi South 10.4 mph - N/A   Clear
10:58 PM 76.1 °F - 65.8 °F 70% 30.09 in 10.0 mi South 8.1 mph - N/A   Clear
11:58 PM 74.5 °F - 65.8 °F 74% 30.10 in 10.0 mi SSW 5.8 mph - N/A   Clear